Year,Month,Day,Hour,Minute,Value (Times are PST for windgust in km/hr)
2010,08,26,00,00,4.80
2010,08,26,00,01,3.20
2010,08,26,00,02,4.80
2010,08,26,00,04,1.60
2010,08,26,00,05,3.20
2010,08,26,00,06,3.20
2010,08,26,00,07,3.20
2010,08,26,00,08,3.20
2010,08,26,00,09,3.20
2010,08,26,00,10,6.40
2010,08,26,00,11,9.60
2010,08,26,00,12,9.60
2010,08,26,00,13,6.40
2010,08,26,00,14,8.10
2010,08,26,00,15,4.80
2010,08,26,00,16,6.40
2010,08,26,00,17,11.30
2010,08,26,00,18,16.10
2010,08,26,00,19,6.40
2010,08,26,00,20,11.30
2010,08,26,00,21,8.10
2010,08,26,00,22,8.10
2010,08,26,00,23,8.10
2010,08,26,00,24,8.10
2010,08,26,00,25,4.80
2010,08,26,00,26,9.60
2010,08,26,00,27,11.30
2010,08,26,00,28,11.30
2010,08,26,00,29,11.30
2010,08,26,00,30,9.60
2010,08,26,00,31,8.10
2010,08,26,00,32,8.10
2010,08,26,00,33,9.60
2010,08,26,00,34,4.80
2010,08,26,00,35,4.80
2010,08,26,00,36,8.10
2010,08,26,00,37,11.30
2010,08,26,00,38,3.20
2010,08,26,00,39,4.80
2010,08,26,00,40,6.40
2010,08,26,00,41,8.10
2010,08,26,00,42,9.60
2010,08,26,00,43,8.10
2010,08,26,00,44,8.10
2010,08,26,00,45,3.20
2010,08,26,00,46,8.10
2010,08,26,00,47,4.80
2010,08,26,00,48,9.60
2010,08,26,00,49,6.40
2010,08,26,00,50,6.40
2010,08,26,00,51,6.40
2010,08,26,00,52,6.40
2010,08,26,00,53,8.10
2010,08,26,00,54,9.60
2010,08,26,00,55,8.10
2010,08,26,00,56,8.10
2010,08,26,00,57,8.10
2010,08,26,00,58,4.80
2010,08,26,00,59,3.20
2010,08,26,01,00,4.80
2010,08,26,01,01,9.60
2010,08,26,01,02,6.40
2010,08,26,01,03,8.10
2010,08,26,01,04,8.10
2010,08,26,01,05,4.80
2010,08,26,01,06,4.80
2010,08,26,01,07,6.40
2010,08,26,01,08,3.20
2010,08,26,01,09,1.60
2010,08,26,01,10,4.80
2010,08,26,01,11,4.80
2010,08,26,01,14,1.60
2010,08,26,01,15,1.60
2010,08,26,01,16,1.60
2010,08,26,01,17,1.60
2010,08,26,01,18,1.60
2010,08,26,01,19,4.80
2010,08,26,01,20,22.50
2010,08,26,01,22,4.80
2010,08,26,01,23,1.60
2010,08,26,01,25,6.40
2010,08,26,01,26,3.20
2010,08,26,01,27,1.60
2010,08,26,01,28,6.40
2010,08,26,01,29,3.20
2010,08,26,01,30,4.80
2010,08,26,01,31,6.40
2010,08,26,01,32,4.80
2010,08,26,01,33,3.20
2010,08,26,01,34,3.20
2010,08,26,01,35,4.80
2010,08,26,01,36,4.80
2010,08,26,01,37,6.40
2010,08,26,01,38,3.20
2010,08,26,01,39,8.10
2010,08,26,01,40,8.10
2010,08,26,01,41,6.40
2010,08,26,01,42,8.10
2010,08,26,01,43,9.60
2010,08,26,01,44,11.30
2010,08,26,01,45,8.10
2010,08,26,01,46,4.80
2010,08,26,01,47,6.40
2010,08,26,01,48,8.10
2010,08,26,01,49,6.40
2010,08,26,01,50,8.10
2010,08,26,01,51,14.50
2010,08,26,01,52,9.60
2010,08,26,01,53,9.60
2010,08,26,01,54,6.40
2010,08,26,01,55,3.20
2010,08,26,01,56,6.40
2010,08,26,01,57,6.40
2010,08,26,01,58,4.80
2010,08,26,01,59,6.40
2010,08,26,02,00,8.10
2010,08,26,02,01,6.40
2010,08,26,02,02,8.10
2010,08,26,02,03,3.20
2010,08,26,02,05,4.80
2010,08,26,02,06,3.20
2010,08,26,02,07,6.40
2010,08,26,02,08,4.80
2010,08,26,02,10,1.60
2010,08,26,02,11,3.20
2010,08,26,02,12,1.60
2010,08,26,02,13,6.40
2010,08,26,02,14,3.20
2010,08,26,02,15,1.60
2010,08,26,02,16,9.60
2010,08,26,02,17,9.60
2010,08,26,02,18,6.40
2010,08,26,02,19,6.40
2010,08,26,02,20,3.20
2010,08,26,02,21,9.60
2010,08,26,02,22,11.30
2010,08,26,02,23,8.10
2010,08,26,02,24,8.10
2010,08,26,02,25,8.10
2010,08,26,02,26,6.40
2010,08,26,02,27,4.80
2010,08,26,02,28,8.10
2010,08,26,02,29,6.40
2010,08,26,02,30,8.10
2010,08,26,02,31,6.40
2010,08,26,02,32,6.40
2010,08,26,02,33,6.40
2010,08,26,02,34,6.40
2010,08,26,02,35,4.80
2010,08,26,02,36,1.60
2010,08,26,02,37,1.60
2010,08,26,02,38,4.80
2010,08,26,02,39,1.60
2010,08,26,02,40,3.20
2010,08,26,02,41,1.60
2010,08,26,02,42,4.80
2010,08,26,02,43,4.80
2010,08,26,02,44,3.20
2010,08,26,02,45,4.80
2010,08,26,02,48,1.60
2010,08,26,02,50,3.20
2010,08,26,02,51,4.80
2010,08,26,02,52,4.80
2010,08,26,02,53,3.20
2010,08,26,02,54,1.60
2010,08,26,02,59,4.80
2010,08,26,03,00,3.20
2010,08,26,03,01,3.20
2010,08,26,03,02,3.20
2010,08,26,03,04,1.60
2010,08,26,03,05,3.20
2010,08,26,03,06,4.80
2010,08,26,03,07,1.60
2010,08,26,03,08,3.20
2010,08,26,03,09,3.20
2010,08,26,03,10,6.40
2010,08,26,03,11,4.80
2010,08,26,03,12,4.80
2010,08,26,03,13,6.40
2010,08,26,03,14,6.40
2010,08,26,03,15,6.40
2010,08,26,03,16,4.80
2010,08,26,03,17,3.20
2010,08,26,03,18,4.80
2010,08,26,03,19,4.80
2010,08,26,03,20,3.20
2010,08,26,03,21,4.80
2010,08,26,03,22,3.20
2010,08,26,03,23,1.60
2010,08,26,03,24,6.40
2010,08,26,03,25,6.40
2010,08,26,03,26,4.80
2010,08,26,03,27,4.80
2010,08,26,03,28,8.10
2010,08,26,03,29,4.80
2010,08,26,03,30,4.80
2010,08,26,03,31,8.10
2010,08,26,03,32,4.80
2010,08,26,03,33,3.20
2010,08,26,03,34,4.80
2010,08,26,03,35,8.10
2010,08,26,03,36,3.20
2010,08,26,03,37,4.80
2010,08,26,03,38,4.80
2010,08,26,03,41,3.20
2010,08,26,03,42,1.60
2010,08,26,03,43,8.10
2010,08,26,03,44,1.60
2010,08,26,03,45,1.60
2010,08,26,03,46,1.60
2010,08,26,03,47,1.60
2010,08,26,03,50,1.60
2010,08,26,03,51,3.20
2010,08,26,03,52,3.20
2010,08,26,03,56,1.60
2010,08,26,03,57,1.60
2010,08,26,03,59,3.20
2010,08,26,04,01,1.60
2010,08,26,04,02,1.60
2010,08,26,04,04,4.80
2010,08,26,04,05,3.20
2010,08,26,04,06,3.20
2010,08,26,04,07,4.80
2010,08,26,04,08,1.60
2010,08,26,04,09,1.60
2010,08,26,04,10,6.40
2010,08,26,04,11,8.10
2010,08,26,04,12,4.80
2010,08,26,04,13,3.20
2010,08,26,04,14,6.40
2010,08,26,04,15,3.20
2010,08,26,04,16,1.60
2010,08,26,04,17,6.40
2010,08,26,04,18,6.40
2010,08,26,04,19,9.60
2010,08,26,04,20,8.10
2010,08,26,04,21,4.80
2010,08,26,04,22,4.80
2010,08,26,04,23,6.40
2010,08,26,04,24,4.80
2010,08,26,04,25,4.80
2010,08,26,04,26,8.10
2010,08,26,04,27,8.10
2010,08,26,04,28,6.40
2010,08,26,04,29,3.20
2010,08,26,04,30,6.40
2010,08,26,04,31,3.20
2010,08,26,04,32,4.80
2010,08,26,04,33,6.40
2010,08,26,04,34,6.40
2010,08,26,04,35,4.80
2010,08,26,04,36,6.40
2010,08,26,04,37,4.80
2010,08,26,04,38,9.60
2010,08,26,04,39,6.40
2010,08,26,04,40,4.80
2010,08,26,04,41,6.40
2010,08,26,04,42,3.20
2010,08,26,04,43,14.50
2010,08,26,04,44,9.60
2010,08,26,04,45,6.40
2010,08,26,04,46,9.60
2010,08,26,04,47,11.30
2010,08,26,04,48,6.40
2010,08,26,04,49,6.40
2010,08,26,04,50,8.10
2010,08,26,04,51,4.80
2010,08,26,04,52,9.60
2010,08,26,04,53,8.10
2010,08,26,04,54,9.60
2010,08,26,04,55,9.60
2010,08,26,04,56,6.40
2010,08,26,04,57,9.60
2010,08,26,04,58,9.60
2010,08,26,04,59,8.10
2010,08,26,05,00,9.60
2010,08,26,05,01,9.60
2010,08,26,05,02,14.50
2010,08,26,05,03,9.60
2010,08,26,05,04,14.50
2010,08,26,05,05,11.30
2010,08,26,05,06,11.30
2010,08,26,05,07,14.50
2010,08,26,05,08,11.30
2010,08,26,05,09,8.10
2010,08,26,05,10,12.90
2010,08,26,05,11,14.50
2010,08,26,05,12,11.30
2010,08,26,05,13,9.60
2010,08,26,05,14,9.60
2010,08,26,05,15,9.60
2010,08,26,05,16,17.70
2010,08,26,05,17,16.10
2010,08,26,05,18,11.30
2010,08,26,05,19,9.60
2010,08,26,05,20,11.30
2010,08,26,05,21,17.70
2010,08,26,05,22,14.50
2010,08,26,05,23,16.10
2010,08,26,05,24,17.70
2010,08,26,05,25,16.10
2010,08,26,05,26,14.50
2010,08,26,05,27,16.10
2010,08,26,05,28,12.90
2010,08,26,05,29,9.60
2010,08,26,05,30,14.50
2010,08,26,05,31,16.10
2010,08,26,05,32,8.10
2010,08,26,05,33,17.70
2010,08,26,05,34,9.60
2010,08,26,05,35,11.30
2010,08,26,05,36,8.10
2010,08,26,05,37,11.30
2010,08,26,05,38,17.70
2010,08,26,05,39,12.90
2010,08,26,05,40,20.90
2010,08,26,05,41,12.90
2010,08,26,05,42,17.70
2010,08,26,05,43,11.30
2010,08,26,05,44,11.30
2010,08,26,05,45,9.60
2010,08,26,05,46,19.30
2010,08,26,05,47,8.10
2010,08,26,05,48,14.50
2010,08,26,05,49,11.30
2010,08,26,05,50,9.60
2010,08,26,05,51,16.10
2010,08,26,05,52,8.10
2010,08,26,05,53,20.90
2010,08,26,05,54,16.10
2010,08,26,05,55,16.10
2010,08,26,05,56,16.10
2010,08,26,05,57,16.10
2010,08,26,05,58,16.10
2010,08,26,05,59,8.10
2010,08,26,06,00,17.70
2010,08,26,06,01,14.50
2010,08,26,06,02,17.70
2010,08,26,06,03,14.50
2010,08,26,06,04,19.30
2010,08,26,06,05,11.30
2010,08,26,06,06,19.30
2010,08,26,06,07,19.30
2010,08,26,06,08,16.10
2010,08,26,06,09,19.30
2010,08,26,06,10,19.30
2010,08,26,06,11,9.60
2010,08,26,06,12,6.40
2010,08,26,06,13,14.50
2010,08,26,06,14,16.10
2010,08,26,06,15,11.30
2010,08,26,06,16,12.90
2010,08,26,06,17,14.50
2010,08,26,06,18,9.60
2010,08,26,06,19,11.30
2010,08,26,06,20,6.40
2010,08,26,06,21,11.30
2010,08,26,06,22,9.60
2010,08,26,06,23,14.50
2010,08,26,06,24,8.10
2010,08,26,06,25,8.10
2010,08,26,06,26,12.90
2010,08,26,06,27,6.40
2010,08,26,06,28,11.30
2010,08,26,06,29,11.30
2010,08,26,06,30,8.10
2010,08,26,06,31,12.90
2010,08,26,06,32,20.90
2010,08,26,06,33,14.50
2010,08,26,06,34,20.90
2010,08,26,06,35,17.70
2010,08,26,06,36,9.60
2010,08,26,06,37,8.10
2010,08,26,06,38,9.60
2010,08,26,06,39,11.30
2010,08,26,06,40,8.10
2010,08,26,06,41,14.50
2010,08,26,06,42,11.30
2010,08,26,06,43,14.50
2010,08,26,06,44,16.10
2010,08,26,06,45,19.30
2010,08,26,06,46,9.60
2010,08,26,06,47,16.10
2010,08,26,06,48,14.50
2010,08,26,06,49,11.30
2010,08,26,06,50,11.30
2010,08,26,06,51,9.60
2010,08,26,06,52,4.80
2010,08,26,06,53,6.40
2010,08,26,06,54,11.30
2010,08,26,06,55,19.30
2010,08,26,06,56,12.90
2010,08,26,06,57,9.60
2010,08,26,06,58,14.50
2010,08,26,06,59,25.70
2010,08,26,07,00,16.10
2010,08,26,07,01,16.10
2010,08,26,07,02,17.70
2010,08,26,07,03,11.30
2010,08,26,07,04,9.60
2010,08,26,07,05,9.60
2010,08,26,07,06,9.60
2010,08,26,07,07,9.60
2010,08,26,07,08,9.60
2010,08,26,07,09,4.80
2010,08,26,07,10,8.10
2010,08,26,07,11,8.10
2010,08,26,07,12,6.40
2010,08,26,07,13,3.20
2010,08,26,07,14,1.60
2010,08,26,07,15,6.40
2010,08,26,07,16,6.40
2010,08,26,07,17,8.10
2010,08,26,07,18,11.30
2010,08,26,07,19,19.30
2010,08,26,07,20,17.70
2010,08,26,07,21,9.60
2010,08,26,07,22,11.30
2010,08,26,07,23,20.90
2010,08,26,07,24,25.70
2010,08,26,07,25,16.10
2010,08,26,07,26,19.30
2010,08,26,07,27,16.10
2010,08,26,07,28,19.30
2010,08,26,07,29,27.40
2010,08,26,07,30,19.30
2010,08,26,07,31,19.30
2010,08,26,07,32,24.20
2010,08,26,07,33,20.90
2010,08,26,07,34,19.30
2010,08,26,07,35,27.40
2010,08,26,07,36,29.00
2010,08,26,07,37,24.20
2010,08,26,07,38,20.90
2010,08,26,07,39,24.20
2010,08,26,07,40,24.20
2010,08,26,07,41,24.20
2010,08,26,07,42,30.60
2010,08,26,07,43,25.70
2010,08,26,07,44,27.40
2010,08,26,07,45,27.40
2010,08,26,07,46,35.40
2010,08,26,07,47,24.20
2010,08,26,07,48,14.50
2010,08,26,07,49,25.70
2010,08,26,07,50,20.90
2010,08,26,07,51,30.60
2010,08,26,07,52,27.40
2010,08,26,07,53,29.00
2010,08,26,07,54,22.50
2010,08,26,07,55,22.50
2010,08,26,07,56,19.30
2010,08,26,07,57,24.20
2010,08,26,07,58,24.20
2010,08,26,07,59,20.90
2010,08,26,08,00,22.50
2010,08,26,08,01,25.70
2010,08,26,08,02,33.80
2010,08,26,08,03,27.40
2010,08,26,08,04,22.50
2010,08,26,08,05,20.90
2010,08,26,08,06,20.90
2010,08,26,08,07,17.70
2010,08,26,08,08,29.00
2010,08,26,08,09,25.70
2010,08,26,08,10,19.30
2010,08,26,08,11,22.50
2010,08,26,08,12,20.90
2010,08,26,08,13,25.70
2010,08,26,08,14,30.60
2010,08,26,08,15,24.20
2010,08,26,08,16,22.50
2010,08,26,08,17,27.40
2010,08,26,08,18,19.30
2010,08,26,08,19,24.20
2010,08,26,08,20,30.60
2010,08,26,08,21,20.90
2010,08,26,08,22,20.90
2010,08,26,08,23,22.50
2010,08,26,08,24,22.50
2010,08,26,08,25,19.30
2010,08,26,08,26,17.70
2010,08,26,08,27,24.20
2010,08,26,08,28,24.20
2010,08,26,08,29,24.20
2010,08,26,08,30,17.70
2010,08,26,08,31,25.70
2010,08,26,08,32,41.80
2010,08,26,08,33,38.60
2010,08,26,08,34,33.80
2010,08,26,08,35,29.00
2010,08,26,08,36,35.40
2010,08,26,08,37,24.20
2010,08,26,08,38,24.20
2010,08,26,08,39,14.50
2010,08,26,08,40,22.50
2010,08,26,08,41,24.20
2010,08,26,08,42,33.80
2010,08,26,08,43,32.20
2010,08,26,08,44,32.20
2010,08,26,08,45,25.70
2010,08,26,08,46,25.70
2010,08,26,08,47,27.40
2010,08,26,08,48,24.20
2010,08,26,08,49,24.20
2010,08,26,08,50,35.40
2010,08,26,08,51,35.40
2010,08,26,08,52,25.70
2010,08,26,08,53,24.20
2010,08,26,08,54,30.60
2010,08,26,08,55,27.40
2010,08,26,08,56,35.40
2010,08,26,08,57,24.20
2010,08,26,08,58,17.70
2010,08,26,08,59,25.70
2010,08,26,09,00,20.90
2010,08,26,09,01,19.30
2010,08,26,09,02,29.00
2010,08,26,09,03,32.20
2010,08,26,09,04,14.50
2010,08,26,09,05,17.70
2010,08,26,09,06,20.90
2010,08,26,09,07,22.50
2010,08,26,09,08,27.40
2010,08,26,09,09,25.70
2010,08,26,09,10,37.00
2010,08,26,09,11,25.70
2010,08,26,09,12,24.20
2010,08,26,09,13,17.70
2010,08,26,09,14,35.40
2010,08,26,09,15,27.40
2010,08,26,09,16,27.40
2010,08,26,09,17,33.80
2010,08,26,09,18,33.80
2010,08,26,09,19,29.00
2010,08,26,09,20,33.80
2010,08,26,09,21,32.20
2010,08,26,09,22,37.00
2010,08,26,09,23,32.20
2010,08,26,09,24,37.00
2010,08,26,09,25,32.20
2010,08,26,09,26,27.40
2010,08,26,09,27,27.40
2010,08,26,09,28,22.50
2010,08,26,09,29,33.80
2010,08,26,09,30,38.60
2010,08,26,09,31,20.90
2010,08,26,09,32,16.10
2010,08,26,09,33,29.00
2010,08,26,09,34,27.40
2010,08,26,09,35,25.70
2010,08,26,09,36,29.00
2010,08,26,09,37,22.50
2010,08,26,09,38,30.60
2010,08,26,09,39,33.80
2010,08,26,09,40,32.20
2010,08,26,09,41,29.00
2010,08,26,09,42,25.70
2010,08,26,09,43,16.10
2010,08,26,09,44,14.50
2010,08,26,09,45,24.20
2010,08,26,09,46,22.50
2010,08,26,09,47,14.50
2010,08,26,09,48,27.40
2010,08,26,09,49,29.00
2010,08,26,09,50,20.90
2010,08,26,09,51,17.70
2010,08,26,09,52,19.30
2010,08,26,09,53,20.90
2010,08,26,09,54,22.50
2010,08,26,09,55,22.50
2010,08,26,09,56,24.20
2010,08,26,09,57,22.50
2010,08,26,09,58,16.10
2010,08,26,09,59,14.50
2010,08,26,10,00,17.70
2010,08,26,10,01,27.40
2010,08,26,10,02,24.20
2010,08,26,10,03,19.30
2010,08,26,10,04,20.90
2010,08,26,10,05,27.40
2010,08,26,10,06,16.10
2010,08,26,10,07,22.50
2010,08,26,10,08,24.20
2010,08,26,10,09,11.30
2010,08,26,10,10,27.40
2010,08,26,10,11,20.90
2010,08,26,10,12,16.10
2010,08,26,10,13,20.90
2010,08,26,10,14,24.20
2010,08,26,10,15,17.70
2010,08,26,10,16,24.20
2010,08,26,10,17,29.00
2010,08,26,10,18,17.70
2010,08,26,10,19,14.50
2010,08,26,10,20,20.90
2010,08,26,10,21,24.20
2010,08,26,10,22,19.30
2010,08,26,10,23,16.10
2010,08,26,10,24,17.70
2010,08,26,10,25,22.50
2010,08,26,10,26,27.40
2010,08,26,10,27,24.20
2010,08,26,10,28,38.60
2010,08,26,10,29,24.20
2010,08,26,10,30,27.40
2010,08,26,10,31,19.30
2010,08,26,10,32,19.30
2010,08,26,10,33,29.00
2010,08,26,10,34,25.70
2010,08,26,10,35,17.70
2010,08,26,10,36,19.30
2010,08,26,10,37,17.70
2010,08,26,10,38,11.30
2010,08,26,10,39,22.50
2010,08,26,10,40,22.50
2010,08,26,10,41,19.30
2010,08,26,10,42,24.20
2010,08,26,10,43,20.90
2010,08,26,10,44,19.30
2010,08,26,10,45,29.00
2010,08,26,10,46,17.70
2010,08,26,10,47,22.50
2010,08,26,10,48,27.40
2010,08,26,10,49,16.10
2010,08,26,10,50,22.50
2010,08,26,10,51,17.70
2010,08,26,10,52,33.80
2010,08,26,10,53,24.20
2010,08,26,10,54,27.40
2010,08,26,10,55,25.70
2010,08,26,10,56,41.80
2010,08,26,10,57,27.40
2010,08,26,10,58,35.40
2010,08,26,10,59,30.60
2010,08,26,11,00,32.20
2010,08,26,11,01,32.20
2010,08,26,11,02,30.60
2010,08,26,11,03,32.20
2010,08,26,11,04,32.20
2010,08,26,11,05,37.00
2010,08,26,11,06,30.60
2010,08,26,11,07,33.80
2010,08,26,11,08,33.80
2010,08,26,11,09,29.00
2010,08,26,11,10,25.70
2010,08,26,11,11,29.00
2010,08,26,11,12,29.00
2010,08,26,11,13,37.00
2010,08,26,11,14,41.80
2010,08,26,11,15,30.60
2010,08,26,11,16,37.00
2010,08,26,11,17,33.80
2010,08,26,11,18,25.70
2010,08,26,11,19,29.00
2010,08,26,11,20,27.40
2010,08,26,11,21,27.40
2010,08,26,11,22,45.10
2010,08,26,11,23,40.20
2010,08,26,11,24,25.70
2010,08,26,11,25,29.00
2010,08,26,11,26,33.80
2010,08,26,11,27,35.40
2010,08,26,11,28,38.60
2010,08,26,11,29,35.40
2010,08,26,11,30,40.20
2010,08,26,11,31,25.70
2010,08,26,11,32,32.20
2010,08,26,11,33,29.00
2010,08,26,11,34,16.10
2010,08,26,11,35,30.60
2010,08,26,11,36,37.00
2010,08,26,11,37,37.00
2010,08,26,11,38,32.20
2010,08,26,11,39,30.60
2010,08,26,11,40,43.50
2010,08,26,11,41,38.60
2010,08,26,11,42,19.30
2010,08,26,11,43,25.70
2010,08,26,11,44,20.90
2010,08,26,11,45,30.60
2010,08,26,11,46,27.40
2010,08,26,11,47,30.60
2010,08,26,11,48,33.80
2010,08,26,11,49,33.80
2010,08,26,11,50,40.20
2010,08,26,11,51,40.20
2010,08,26,11,52,32.20
2010,08,26,11,53,41.80
2010,08,26,11,54,35.40
2010,08,26,11,55,32.20
2010,08,26,11,56,35.40
2010,08,26,11,57,29.00
2010,08,26,11,58,20.90
2010,08,26,11,59,29.00
2010,08,26,12,00,20.90
2010,08,26,12,01,40.20
2010,08,26,12,02,24.20
2010,08,26,12,03,49.90
2010,08,26,12,04,41.80
2010,08,26,12,05,43.50
2010,08,26,12,06,32.20
2010,08,26,12,07,27.40
2010,08,26,12,08,43.50
2010,08,26,12,09,40.20
2010,08,26,12,10,32.20
2010,08,26,12,11,41.80
2010,08,26,12,12,27.40
2010,08,26,12,13,38.60
2010,08,26,12,14,33.80
2010,08,26,12,15,38.60
2010,08,26,12,16,24.20
2010,08,26,12,17,32.20
2010,08,26,12,18,32.20
2010,08,26,12,19,35.40
2010,08,26,12,20,27.40
2010,08,26,12,21,45.10
2010,08,26,12,22,33.80
2010,08,26,12,23,38.60
2010,08,26,12,24,37.00
2010,08,26,12,25,40.20
2010,08,26,12,26,30.60
2010,08,26,12,27,41.80
2010,08,26,12,28,35.40
2010,08,26,12,29,38.60
2010,08,26,12,30,45.10
2010,08,26,12,31,37.00
2010,08,26,12,32,38.60
2010,08,26,12,33,46.70
2010,08,26,12,34,35.40
2010,08,26,12,35,37.00
2010,08,26,12,36,48.30
2010,08,26,12,37,35.40
2010,08,26,12,38,25.70
2010,08,26,12,39,33.80
2010,08,26,12,40,35.40
2010,08,26,12,41,33.80
2010,08,26,12,42,43.50
2010,08,26,12,43,33.80
2010,08,26,12,44,35.40
2010,08,26,12,45,37.00
2010,08,26,12,46,29.00
2010,08,26,12,47,35.40
2010,08,26,12,48,45.10
2010,08,26,12,49,46.70
2010,08,26,12,50,41.80
2010,08,26,12,51,33.80
2010,08,26,12,52,41.80
2010,08,26,12,53,46.70
2010,08,26,12,54,37.00
2010,08,26,12,55,41.80
2010,08,26,12,56,49.90
2010,08,26,12,57,35.40
2010,08,26,12,58,29.00
2010,08,26,12,59,27.40
2010,08,26,13,00,35.40
2010,08,26,13,01,40.20
2010,08,26,13,02,45.10
2010,08,26,13,03,46.70
2010,08,26,13,04,46.70
2010,08,26,13,05,54.70
2010,08,26,13,06,35.40
2010,08,26,13,07,32.20
2010,08,26,13,08,41.80
2010,08,26,13,09,46.70
2010,08,26,13,10,27.40
2010,08,26,13,11,41.80
2010,08,26,13,12,40.20
2010,08,26,13,13,27.40
2010,08,26,13,14,24.20
2010,08,26,13,15,33.80
2010,08,26,13,16,45.10
2010,08,26,13,17,35.40
2010,08,26,13,18,45.10
2010,08,26,13,19,35.40
2010,08,26,13,20,40.20
2010,08,26,13,21,48.30
2010,08,26,13,22,40.20
2010,08,26,13,23,33.80
2010,08,26,13,24,37.00
2010,08,26,13,25,40.20
2010,08,26,13,26,45.10
2010,08,26,13,27,49.90
2010,08,26,13,28,46.70
2010,08,26,13,29,32.20
2010,08,26,13,30,41.80
2010,08,26,13,31,45.10
2010,08,26,13,32,46.70
2010,08,26,13,33,53.10
2010,08,26,13,34,43.50
2010,08,26,13,35,27.40
2010,08,26,13,36,40.20
2010,08,26,13,37,33.80
2010,08,26,13,38,29.00
2010,08,26,13,39,29.00
2010,08,26,13,40,37.00
2010,08,26,13,41,35.40
2010,08,26,13,42,25.70
2010,08,26,13,43,41.80
2010,08,26,13,44,29.00
2010,08,26,13,45,45.10
2010,08,26,13,46,30.60
2010,08,26,13,47,25.70
2010,08,26,13,48,29.00
2010,08,26,13,49,35.40
2010,08,26,13,50,40.20
2010,08,26,13,51,24.20
2010,08,26,13,52,35.40
2010,08,26,13,53,29.00
2010,08,26,13,54,25.70
2010,08,26,13,55,30.60
2010,08,26,13,56,29.00
2010,08,26,13,57,40.20
2010,08,26,13,58,35.40
2010,08,26,13,59,35.40
2010,08,26,14,00,37.00
2010,08,26,14,01,27.40
2010,08,26,14,02,30.60
2010,08,26,14,03,17.70
2010,08,26,14,04,43.50
2010,08,26,14,05,33.80
2010,08,26,14,06,37.00
2010,08,26,14,07,43.50
2010,08,26,14,08,29.00
2010,08,26,14,09,30.60
2010,08,26,14,10,25.70
2010,08,26,14,11,20.90
2010,08,26,14,12,43.50
2010,08,26,14,13,41.80
2010,08,26,14,14,29.00
2010,08,26,14,15,37.00
2010,08,26,14,16,35.40
2010,08,26,14,17,25.70
2010,08,26,14,18,20.90
2010,08,26,14,19,25.70
2010,08,26,14,20,37.00
2010,08,26,14,21,27.40
2010,08,26,14,22,30.60
2010,08,26,14,23,33.80
2010,08,26,14,24,32.20
2010,08,26,14,25,48.30
2010,08,26,14,26,30.60
2010,08,26,14,27,40.20
2010,08,26,14,28,38.60
2010,08,26,14,29,24.20
2010,08,26,14,30,33.80
2010,08,26,14,31,33.80
2010,08,26,14,32,40.20
2010,08,26,14,33,38.60
2010,08,26,14,34,32.20
2010,08,26,14,35,35.40
2010,08,26,14,36,38.60
2010,08,26,14,37,35.40
2010,08,26,14,38,27.40
2010,08,26,14,39,27.40
2010,08,26,14,40,30.60
2010,08,26,14,41,29.00
2010,08,26,14,42,32.20
2010,08,26,14,43,37.00
2010,08,26,14,44,37.00
2010,08,26,14,45,35.40
2010,08,26,14,46,30.60
2010,08,26,14,47,24.20
2010,08,26,14,48,35.40
2010,08,26,14,49,25.70
2010,08,26,14,50,19.30
2010,08,26,14,51,37.00
2010,08,26,14,52,37.00
2010,08,26,14,53,35.40
2010,08,26,14,54,25.70
2010,08,26,14,55,37.00
2010,08,26,14,56,41.80
2010,08,26,14,57,37.00
2010,08,26,14,58,16.10
2010,08,26,14,59,32.20
2010,08,26,15,00,27.40
2010,08,26,15,01,40.20
2010,08,26,15,02,32.20
2010,08,26,15,03,33.80
2010,08,26,15,04,25.70
2010,08,26,15,05,24.20
2010,08,26,15,06,38.60
2010,08,26,15,07,25.70
2010,08,26,15,08,14.50
2010,08,26,15,09,17.70
2010,08,26,15,10,33.80
2010,08,26,15,11,30.60
2010,08,26,15,12,30.60
2010,08,26,15,13,37.00
2010,08,26,15,14,25.70
2010,08,26,15,15,40.20
2010,08,26,15,16,37.00
2010,08,26,15,17,35.40
2010,08,26,15,18,24.20
2010,08,26,15,19,32.20
2010,08,26,15,20,20.90
2010,08,26,15,21,37.00
2010,08,26,15,22,37.00
2010,08,26,15,23,35.40
2010,08,26,15,24,27.40
2010,08,26,15,25,32.20
2010,08,26,15,26,32.20
2010,08,26,15,27,27.40
2010,08,26,15,28,38.60
2010,08,26,15,29,37.00
2010,08,26,15,30,37.00
2010,08,26,15,31,25.70
2010,08,26,15,32,29.00
2010,08,26,15,33,35.40
2010,08,26,15,34,24.20
2010,08,26,15,35,35.40
2010,08,26,15,36,30.60
2010,08,26,15,37,27.40
2010,08,26,15,38,29.00
2010,08,26,15,39,38.60
2010,08,26,15,40,27.40
2010,08,26,15,41,24.20
2010,08,26,15,42,32.20
2010,08,26,15,43,29.00
2010,08,26,15,44,35.40
2010,08,26,15,45,33.80
2010,08,26,15,46,46.70
2010,08,26,15,47,24.20
2010,08,26,15,48,40.20
2010,08,26,15,49,35.40
2010,08,26,15,50,37.00
2010,08,26,15,51,29.00
2010,08,26,15,52,49.90
2010,08,26,15,53,33.80
2010,08,26,15,54,29.00
2010,08,26,15,55,35.40
2010,08,26,15,56,51.50
2010,08,26,15,57,35.40
2010,08,26,15,58,40.20
2010,08,26,15,59,43.50
2010,08,26,16,00,40.20
2010,08,26,16,01,37.00
2010,08,26,16,02,33.80
2010,08,26,16,03,27.40
2010,08,26,16,04,32.20
2010,08,26,16,05,40.20
2010,08,26,16,06,40.20
2010,08,26,16,07,24.20
2010,08,26,16,08,32.20
2010,08,26,16,09,22.50
2010,08,26,16,10,16.10
2010,08,26,16,11,19.30
2010,08,26,16,12,37.00
2010,08,26,16,13,25.70
2010,08,26,16,14,24.20
2010,08,26,16,15,37.00
2010,08,26,16,16,40.20
2010,08,26,16,17,38.60
2010,08,26,16,18,30.60
2010,08,26,16,19,33.80
2010,08,26,16,20,24.20
2010,08,26,16,21,27.40
2010,08,26,16,22,51.50
2010,08,26,16,23,38.60
2010,08,26,16,24,33.80
2010,08,26,16,25,38.60
2010,08,26,16,26,41.80
2010,08,26,16,27,27.40
2010,08,26,16,28,33.80
2010,08,26,16,29,24.20
2010,08,26,16,30,35.40
2010,08,26,16,31,38.60
2010,08,26,16,32,41.80
2010,08,26,16,33,17.70
2010,08,26,16,34,45.10
2010,08,26,16,35,46.70
2010,08,26,16,36,33.80
2010,08,26,16,37,17.70
2010,08,26,16,38,27.40
2010,08,26,16,39,29.00
2010,08,26,16,40,20.90
2010,08,26,16,41,24.20
2010,08,26,16,42,32.20
2010,08,26,16,43,37.00
2010,08,26,16,44,25.70
2010,08,26,16,45,25.70
2010,08,26,16,46,38.60
2010,08,26,16,47,25.70
2010,08,26,16,48,14.50
2010,08,26,16,49,20.90
2010,08,26,16,50,35.40
2010,08,26,16,51,27.40
2010,08,26,16,52,27.40
2010,08,26,16,53,30.60
2010,08,26,16,54,32.20
2010,08,26,16,55,38.60
2010,08,26,16,56,35.40
2010,08,26,16,57,38.60
2010,08,26,16,58,24.20
2010,08,26,16,59,27.40
2010,08,26,17,00,25.70
2010,08,26,17,01,24.20
2010,08,26,17,02,19.30
2010,08,26,17,03,33.80
2010,08,26,17,04,32.20
2010,08,26,17,05,30.60
2010,08,26,17,06,25.70
2010,08,26,17,07,35.40
2010,08,26,17,08,35.40
2010,08,26,17,09,48.30
2010,08,26,17,10,41.80
2010,08,26,17,11,22.50
2010,08,26,17,12,35.40
2010,08,26,17,13,37.00
2010,08,26,17,14,40.20
2010,08,26,17,15,27.40
2010,08,26,17,16,30.60
2010,08,26,17,17,30.60
2010,08,26,17,18,22.50
2010,08,26,17,19,32.20
2010,08,26,17,20,29.00
2010,08,26,17,21,24.20
2010,08,26,17,22,41.80
2010,08,26,17,23,27.40
2010,08,26,17,24,24.20
2010,08,26,17,25,30.60
2010,08,26,17,26,43.50
2010,08,26,17,27,40.20
2010,08,26,17,28,35.40
2010,08,26,17,29,30.60
2010,08,26,17,30,35.40
2010,08,26,17,31,27.40
2010,08,26,17,32,27.40
2010,08,26,17,33,37.00
2010,08,26,17,34,25.70
2010,08,26,17,35,43.50
2010,08,26,17,36,40.20
2010,08,26,17,37,24.20
2010,08,26,17,38,45.10
2010,08,26,17,39,37.00
2010,08,26,17,40,37.00
2010,08,26,17,41,35.40
2010,08,26,17,42,32.20
2010,08,26,17,43,40.20
2010,08,26,17,44,32.20
2010,08,26,17,45,35.40
2010,08,26,17,46,29.00
2010,08,26,17,47,33.80
2010,08,26,17,48,37.00
2010,08,26,17,49,33.80
2010,08,26,17,50,49.90
2010,08,26,17,51,32.20
2010,08,26,17,52,33.80
2010,08,26,17,53,46.70
2010,08,26,17,54,45.10
2010,08,26,17,55,40.20
2010,08,26,17,56,43.50
2010,08,26,17,57,37.00